Location: Unspecified
(49.2170°N, 0.0000°E)
Time: 01:10:11
(UTC+00:00)

SR - Pass Details

Date: 30 January 2021
Orbit: 573 x 882 km, 66.7° (Epoch: 03 March)

Event Time Altitude Azimuth Distance (km) Brightness Sun altitude
Exits shadow 05:39:20 20° 326° (NW) 1,734 ? -18.7°
Maximum altitude 05:39:50 20° 333° (NNW) 1,731 ? -18.6°
Drops below altitude 10° 05:43:53 10° 21° (NNE) 2,410 ? -18.0°
Sets 05:47:05 0° 37° (NE) 3,396 ? -17.4°
